ZHONGXING-26

Last updated on Tue Oct 15 2024 00:02:42 GMT+0000 (Coordinated Universal Time)

1 55686U 23023A 24288.46091326 -.00000356 00000+0 00000+0 0 9998 2 55686 0.0697 73.9218 0001263 64.1390 176.5389 1.00269080 6101
UTC large
Height (km)
Speed (km/s)
/
Latitude / Longitude
Inclination (degrees)
Orbital Period (minutes)
Azimuth
Elevation
Range (km)
Doppler Factor

Next 0 passes for location: London (51.5072 / 0.1276)

Sorry there are no passes over London.